This is the latest recevied weather packets stored in our database for station/object N0HEQ. If no packets are shown the sender has not sent any weather packets the latest 10 day(s).
| Time | Temp. | Humidity | Pressure | Rain* | Wind** | Luminosity | Snow |
|---|---|---|---|---|---|---|---|
| 1777878331 | 12.22° C | 37% | 1014.2 hPa | 0 mm | - | 0 W/m² | - |
| 1777878026 | 12.78° C | 38% | 1014.4 hPa | 0 mm | - | 0 W/m² | - |
| 1777877723 | 12.78° C | 36% | 1014.3 hPa | 0 mm | - | 0 W/m² | - |
| 1777877420 | 13.33° C | 35% | 1014.4 hPa | 0 mm | - | 0 W/m² | - |
| 1777877117 | 13.89° C | 32% | 1014.2 hPa | 0 mm | - | 0 W/m² | - |
| 1777876814 | 13.89° C | 32% | 1014.1 hPa | 0 mm | - | 0 W/m² | - |
| 1777876512 | 13.89° C | 33% | 1014 hPa | 0 mm | - | 0 W/m² | - |
| 1777876209 | 13.89° C | 32% | 1014.2 hPa | 0 mm | - | 0 W/m² | - |
| 1777875905 | 13.33° C | 33% | 1014.3 hPa | 0 mm | - | 0 W/m² | - |
| 1777875601 | 13.89° C | 33% | 1014.2 hPa | 0 mm | - | 0 W/m² | - |
| 1777875298 | 13.89° C | 33% | 1014.3 hPa | 0 mm | - | 0 W/m² | - |
| 1777874995 | 13.89° C | 33% | 1014.1 hPa | 0 mm | - | 0 W/m² | - |
| 1777874690 | 13.89° C | 33% | 1014.2 hPa | 0 mm | - | 0 W/m² | - |
| 1777874387 | 13.89° C | 32% | 1014.2 hPa | 0 mm | - | 0 W/m² | - |
| 1777874085 | 14.44° C | 32% | 1014.2 hPa | 0 mm | - | 0 W/m² | - |
| 1777873783 | 14.44° C | 32% | 1014.2 hPa | 0 mm | - | 0 W/m² | - |
| 1777873479 | 14.44° C | 32% | 1014.3 hPa | 0 mm | - | 0 W/m² | - |
| 1777873177 | 14.44° C | 32% | 1014.3 hPa | 0 mm | - | 0 W/m² | - |
| 1777872873 | 14.44° C | 32% | 1014.2 hPa | 0 mm | - | 0 W/m² | - |
| 1777872571 | 14.44° C | 32% | 1014.4 hPa | 0 mm | - | 0 W/m² | - |
| 1777872268 | 14.44° C | 32% | 1014.4 hPa | 0 mm | - | 0 W/m² | - |
| 1777871966 | 14.44° C | 32% | 1014.3 hPa | 0 mm | - | 0 W/m² | - |
| 1777871661 | 14.44° C | 32% | 1014.3 hPa | 0 mm | - | 0 W/m² | - |
| 1777871358 | 14.44° C | 33% | 1014.3 hPa | 0 mm | - | 0 W/m² | - |
| 1777871055 | 14.44° C | 32% | 1014.4 hPa | 0 mm | - | 0 W/m² | - |
* Rain latest hour (hover to see other rain measurements)
** Current wind speed in m/s (hover to see current wind gust speed)